User: anonymous
Location: Unspecified
(0.0000°N, 0.0000°E)
Time: 00:56:10
(UTC+00:00)
Language:

deb r/b Ablestar - Orbit

View from above orbital plane
View from above orbital plane
View from above satellite
View from above satellite

Ground track
Ground track

The orbit data is extracted from the following two-line orbital elements,

1 00335U 61015DM  14209.96733931  .00000750  00000-0  42343-3 0  2546
2 00335 066.8421 039.6516 0037826 146.4502 003.8607 14.15294062712219
Epoch (UTC): 28 July 2014 23:12:58
Eccentricity: 0.0037826
inclination: 66.8421°
perigee height: 814 km
apogee height: 868 km
right ascension of ascending node: 39.6516°
argument of perigee: 146.4502°
revolutions per day: 14.15294062
mean anomaly at epoch: 3.8607°
orbit number at epoch: 71221

The dashed part of the orbit path shows where the satellite is in the earth's shadow,  

DLR